EW2493 Weather Reports


Display with metric or nautical units.
time (UTC)temp
F
wind
direction
speed
MPH
gust
MPH
rain 1hr
in
rain 24hr
in
rain mn
in
humidity
%
barometer
mb
20260906020059 77 122 2.0 4.0 0.00 0.00 0.00 54 1003.7
20260906014547 78 303 0.0 0.0 0.00 0.00 0.00 58 1003.9
20260906013059 78 303 2.0 3.0 0.00 0.00 0.00 62 1003.9
20260906011545 79 102 1.0 5.0 0.00 0.00 0.00 64 1003.6
20260906010034 79 99 4.0 6.0 0.00 0.00 0.00 66 1003.6
20260906004530 79 114 0.0 1.0 0.00 0.00 0.00 68 1004.5
20260906003025 80 113 0.0 2.0 0.00 0.00 0.00 68 1004.7
20260906001520 82 114 0.0 1.0 0.00 0.00 0.00 70 1004.5
20260906000016 82 114 0.0 2.0 0.00 0.00 0.00 69 1004.3
20260905234512 83 111 1.0 5.0 0.00 0.00 0.00 68 1003.9
20260905233008 84 89 5.0 8.0 0.00 0.00 0.00 66 1003.7
20260905231508 85 103 5.0 13.0 0.00 0.00 0.00 64 1003.5
20260905230001 86 97 6.0 14.0 0.00 0.00 0.00 64 1003.1
20260905224601 88 95 10.0 18.0 0.00 0.00 0.00 61 1002.3
20260905223055 89 88 9.0 14.0 0.00 0.00 0.00 53 1002.1
20260905221551 89 92 11.0 15.0 0.00 0.00 0.00 51 1002.3
20260905220043 90 111 10.0 15.0 0.00 0.00 0.00 52 1002.6
20260905214540 90 112 8.0 15.0 0.00 0.00 0.00 51 1002.9
20260905213035 89 106 9.0 17.0 0.00 0.00 0.00 52 1002.9
20260905211530 89 82 8.0 13.0 0.00 0.00 0.00 52 1003.0
20260905204530 89 77 10.0 13.0 0.00 0.00 0.00 53 1003.0
20260905203020 89 36 7.0 15.0 0.00 0.00 0.00 53 1003.1
20260905201513 89 79 10.0 15.0 0.00 0.00 0.00 52 1003.4
20260905200009 89 37 7.0 15.0 0.00 0.00 0.00 53 1003.4
20260905194506 89 63 10.0 17.0 0.00 0.00 0.00 51 1003.0
20260905193000 88 85 9.0 15.0 0.00 0.00 0.00 53 1002.7
20260905191556 88 64 8.0 17.0 0.00 0.00 0.00 52 1002.8
20260905190052 88 90 8.0 12.0 0.00 0.00 0.00 52 1003.4
20260905184548 87 109 5.0 9.0 0.00 0.00 0.00 53 1003.7
20260905183044 86 94 3.0 9.0 0.00 0.00 0.00 54 1003.9
20260905181540 86 64 3.0 11.0 0.00 0.00 0.00 53 1004.1
20260905180034 87 121 4.0 14.0 0.00 0.00 0.00 53 1004.0
20260905174534 86 129 10.0 15.0 0.00 0.00 0.00 54 1003.7
20260905173029 86 112 10.0 15.0 0.00 0.00 0.00 57 1003.8
20260905171529 85 114 8.0 17.0 0.00 0.00 0.00 58 1004.1
20260905170019 85 136 10.0 19.0 0.00 0.00 0.00 59 1004.4
20260905164513 84 117 8.0 17.0 0.00 0.00 0.00 61 1004.5
20260905163008 83 147 9.0 18.0 0.00 0.00 0.00 63 1004.6
20260905161504 83 133 13.0 17.0 0.00 0.00 0.00 62 1004.6
20260905160109 82 145 7.0 14.0 0.00 0.00 0.00 67 1004.7
20260905154625 81 122 10.0 15.0 0.00 0.00 0.00 66 1004.9
20260905153050 80 136 11.0 14.0 0.00 0.00 0.00 67 1005.0
20260905151546 79 154 7.0 14.0 0.00 0.00 0.00 69 1005.0
20260905150047 78 131 9.0 13.0 0.00 0.00 0.00 69 1005.1
20260905143033 76 127 6.0 10.0 0.00 0.00 0.00 71 1005.0
20260905141530 76 138 4.0 9.0 0.00 0.00 0.00 71 1005.1
20260905140025 75 161 3.0 6.0 0.00 0.00 0.00 71 1004.7
20260905134523 74 134 1.0 4.0 0.00 0.00 0.00 68 1004.6
20260905133015 73 149 0.0 1.0 0.00 0.00 0.00 54 1004.6
20260905131528 72 149 0.0 2.0 0.00 0.00 0.00 47 1004.5
20260905130007 71 144 1.0 3.0 0.00 0.00 0.00 44 1004.4
20260905124503 72 154 2.0 6.0 0.00 0.01 0.00 50 1004.5
20260905123101 72 211 2.0 7.0 0.00 0.01 0.00 44 1004.5
20260905121553 73 205 3.0 8.0 0.00 0.01 0.00 36 1004.6
20260905120052 73 55 0.0 3.0 0.00 0.01 0.00 4 1004.7
20260905114552 73 260 1.0 8.0 0.00 0.01 0.00 1 1004.5
20260905113040 73 214 2.0 11.0 0.00 0.01 0.00 1 1003.9
20260905111545 73 344 2.0 4.0 0.00 0.01 0.00 1 1004.1
20260905110031 74 149 6.0 16.0 0.00 0.01 0.00 1 1003.5
20260905104526 74 170 7.0 15.0 0.00 0.01 0.00 2 1004.0
20260905103023 75 143 10.0 27.0 0.00 0.01 0.00 2 1004.1
20260905101518 74 206 7.0 12.0 0.00 0.01 0.00 1 1004.0
20260905100014 73 8 1.0 12.0 0.00 0.01 0.00 1 1004.5
20260905094508 73 133 9.0 16.0 0.00 0.01 0.00 1 1003.6
20260905093004 72 119 7.0 11.0 0.00 0.01 0.00 1 1004.2
20260905091604 72 95 2.0 5.0 0.00 0.01 0.00 1 1004.0
20260905090056 72 88 1.0 4.0 0.00 0.01 0.00 1 1004.0
20260905084602 72 24 1.0 5.0 0.00 0.01 0.00 4 1004.2
20260905081543 72 330 2.0 5.0 0.00 0.01 0.00 10 1004.6
20260905080042 73 114 3.0 5.0 0.00 0.01 0.00 18 1004.0
20260905074537 73 142 2.0 6.0 0.00 0.01 0.00 27 1004.3
20260905073034 73 130 4.0 11.0 0.00 0.01 0.00 38 1004.0
20260905071534 73 121 7.0 11.0 0.00 0.01 0.00 41 1003.2
20260905070030 73 102 5.0 9.0 0.00 0.01 0.00 43 1003.5
20260905064527 74 109 3.0 7.0 0.00 0.01 0.00 49 1003.6
20260905063025 74 119 6.0 10.0 0.00 0.01 0.00 49 1004.1
20260905061530 73 116 4.0 7.0 0.00 0.01 0.00 44 1004.1
20260905060032 74 71 3.0 7.0 0.00 0.01 0.00 48 1004.3
20260905054522 74 89 3.0 8.0 0.00 0.01 0.00 44 1004.7
20260905053013 74 154 0.0 4.0 0.00 0.01 0.00 58 1005.1
20260905051526 74 140 3.0 6.0 0.00 0.01 0.00 56 1005.1
20260905050008 75 134 2.0 4.0 0.00 0.01 0.00 60 1005.3
20260905044506 75 88 0.0 3.0 0.00 0.01 0.01 60 1005.0
20260905043059 75 67 3.0 5.0 0.00 0.01 0.01 60 1004.4
20260905041605 75 107 1.0 5.0 0.00 0.01 0.01 62 1004.5
20260905040103 75 322 1.0 8.0 0.00 0.01 0.01 59 1005.1
20260905034545 75 133 4.0 11.0 0.00 0.01 0.01 61 1004.7
20260905033050 75 156 9.0 15.0 0.00 0.01 0.01 58 1004.1
20260905031542 74 111 9.0 14.0 0.00 0.01 0.01 49 1003.8
20260905030031 74 109 1.0 5.0 0.00 0.01 0.01 41 1004.8
20260905024552 74 246 3.0 4.0 0.00 0.01 0.01 46 1005.0
20260905023024 76 295 8.0 12.0 0.00 0.01 0.01 61 1004.9